Temp
20 20 20 20 20 20 20 20 20 20 20 20 20 19 20 19 19 19 19 19 19 19 19 18 18 18 18 19 19 19 19 19 19 19 19 19 19 19 19 19 18 18 18
20 20 20 20 20 20 20 20 20 20 20 20 19 19 19 19 19 19 19 19 19 19 19 19 19 19 18 18 19 19 19 19 18 19 19 19 19 19 19 18 18 18 18
20 20 20 20 20 20 20 20 20 20 20 19 19 19 19 19 19 19 19 19 19 19 19 19 19 19 19 19 18 19 19 19 19 18 18 18 18 18 18 19 19 19 18
20 20 20 20 19 19 19 19 19 19 19 19 19 19 19 19 19 19 19 19 19 19 19 19 19 19 19 19 19 19 19 19 19 18 18 18 18 18 18 19 19 19 19
20 20 19 19 19 19 19 19 19 19 19 19 19 19 19 19 19 19 19 19 19 19 19 19 19 19 19 19 19 19 19 19 19 19 18 18 18 18 18 18 19 19 19
19 19 18 19 19 19 19 19 19 19 19 19 19 19 19 19 19 19 19 19 19 19 19 19 18 19 19 18 18 19 19 19 18 18 19 19 19 19 19 18 19 19 19
19 19 19 19 19 19 19 19 19 19 19 18 18 18 18 18 18 18 18 18 18 18 18 19 19 19 19 19 18 18 18 19 18 18 19 19 19 19 18 18 19 19 19
19 19 19 19 19 19 19 19 19 19 19 19 19 19 19 18 18 18 18 18 18 18 18 19 19 18 18 19 18 18 18 18 18 19 18 19 19 19 18 18 18 19 19
18 19 18 19 19 19 18 18 18 18 18 18 18 18 18 18 18 18 18 18 18 18 18 18 18 18 18 18 18 18 18 18 18 18 19 19 19 19 18 18 18 18 18
18 18 18 18 18 18 18 17 18 17 17 17 17 18 18 18 18 18 18 18 18 18 18 18 18 18 18 18 18 18 18 18 18 18 18 19 19 19 19 18 18 18 18
17 17 17 17 17 17 17 17 17 17 17 17 17 16 16 17 16 17 17 17 17 18 18 18 18 18 18 18 18 18 18 18 18 18 18 19 18 19 19 19 19 18 18
16 16 16 16 16 16 16 16 16 16 16 15 15 15 15 15 15 15 16 16 16 16 17 17 17 18 18 18 18 18 18 18 18 18 18 18 18 18 18 19 19 19 18
15 16 16 16 16 16 16 16 16 15 15 14 14 14 14 14 14 14 14 14 15 15 16 16 17 17 17 17 18 18 17 17 17 17 18 18 18 19 19 18 18 19 19
15 15 15 15 15 15 15 15 14 14 14 14 13 13 13 13 13 13 13 13 13 13 13 14 15 15 16 16 17 17 17 17 17 17 17 18 18 18 18 18 18 18 18
15 15 15 14 14 14 14 14 14 13 13 13 13 13 13 13 12 12 12 12 12 12 13 13 13 14 14 15 16 16 17 17 17 17 17 17 17 17 17 17 18 18 18
15 15 15 14 14 14 14 14 13 13 13 13 12 12 12 12 12 12 12 12 12 12 12 12 12 13 13 14 14 15 16 16 17 17 17 17 17 17 17 17 17 17 17
15 15 14 14 14 14 13 13 13 12 12 12 12 12 12 11 11 11 11 11 11 11 12 12 12 13 13 13 13 14 15 16 16 16 17 17 17 17 17 17 17 17 16
15 15 14 14 14 13 13 13 12 12 12 11 11 11 11 10 10 10 10 10 10 10 11 11 11 11 11 12 13 14 14 14 15 15 16 16 16 16 16 17 17 17 17
15 15 14 14 13 13 12 12 12 12 11 11 10 10 10 9 9 9 9 9 9 9 9 9 9 9 9 10 11 13 13 14 14 15 15 14 14 14 15 15 15 15 15
15 14 14 13 13 13 12 12 12 11 11 10 10 10 9 9 9 8 9 8 8 8 7 7 7 8 9 9 10 11 14 14 13 13 13 13 13 13 13 13 14 14 13
14 14 14 13 13 12 12 12 12 12 11 10 10 10 9 9 9 9 9 8 8 7 7 7 7 7 8 8 10 10 13 13 13 13 13 13 12 12 12 12 12 12 12
14 14 13 13 13 12 12 12 11 11 11 10 10 10 9 9 9 8 8 8 7 7 6 7 7 7 8 8 9 9 9 12 12 12 12 11 11 10 9 9 9 9 10
13 14 14 13 13 12 12 12 11 11 11 10 10 10 9 8 8 8 8 7 7 7 6 7 7 7 8 8 9 9 9 9 9 11 11 10 10 9 8 7 6 7 7
14 14 14 13 13 12 12 11 11 11 10 10 10 9 9 8 8 8 8 7 7 7 7 6 6 7 7 8 9 9 9 9 9 9 11 10 9 8 6 6 6 6 6
14 15 14 13 12 12 12 11 11 11 10 10 9 9 9 8 8 7 7 7 6 6 6 6 6 6 6 6 7 7 8 8 7 8 9 7 8 7 7 6 6 6 5
14 13 13 13 13 12 12 12 11 11 10 10 10 9 9 9 8 8 7 7 7 6 6 6 6 6 6 5 5 5 5 6 6 6 7 7 7 7 5 5 4 4 4
Height
820 820 822 822 823 823 823 823 824 824 824 824 824 824 824 824 823 823 822 822 822 822 822 822 821 820 820 820 819 818 818 818 817 817 817 817 816 816 816 815 815 814 814
819 820 822 822 823 824 824 824 824 824 825 825 825 825 825 825 824 824 823 823 823 823 823 823 822 821 821 820 820 819 818 818 818 818 818 817 817 817 817 816 816 816 815
819 821 822 823 824 825 825 825 826 826 826 826 826 826 825 825 825 824 824 824 824 824 823 823 823 822 821 821 820 820 819 819 818 818 818 818 818 818 817 817 816 816 815
820 822 823 824 825 826 826 827 827 827 826 826 826 826 826 826 825 825 824 824 824 824 823 823 823 822 822 821 820 819 819 818 818 818 818 818 818 818 818 817 816 816 815
820 822 824 825 826 826 827 827 827 827 827 826 826 826 826 826 825 825 824 824 824 824 823 823 822 822 821 821 820 819 818 818 817 817 817 817 817 817 817 817 816 816 815
821 823 825 826 827 827 828 828 827 828 827 827 827 826 826 825 825 824 824 823 823 823 822 822 821 821 820 820 819 818 818 817 817 816 816 816 816 815 815 816 816 815 815
822 824 825 826 827 827 828 828 828 828 828 827 827 826 826 825 824 823 823 822 822 821 821 820 820 819 818 818 818 817 816 816 815 815 815 815 814 814 814 815 815 814 814
822 825 826 827 827 828 828 828 827 828 827 827 826 826 825 824 823 822 822 821 820 819 819 818 818 817 816 816 815 815 815 815 814 813 813 813 813 812 812 813 812 812 812
824 826 827 827 828 828 829 828 827 827 827 826 826 825 824 824 823 822 821 820 819 818 816 816 815 814 814 813 813 813 812 813 812 811 811 811 811 810 810 811 810 811 811
826 827 828 828 829 829 829 829 828 827 827 826 825 824 824 823 822 821 820 819 818 816 815 814 813 812 811 810 810 810 810 810 809 809 808 808 808 808 808 808 809 808 808
827 828 828 829 830 830 829 829 828 828 827 826 825 824 822 821 820 819 818 817 816 815 814 812 810 809 808 807 807 807 807 807 806 805 805 805 805 805 804 804 805 805 805
828 829 829 830 831 830 829 829 828 827 826 825 824 823 822 820 819 818 816 814 813 812 811 810 808 806 805 804 804 803 803 803 802 802 801 800 800 800 799 799 799 800 801
829 829 830 831 831 830 829 828 828 827 826 825 824 823 821 820 817 817 814 812 810 808 807 806 805 804 802 801 800 800 799 799 799 798 797 797 796 795 795 796 795 796 796
829 830 831 832 831 831 829 828 828 826 826 824 823 823 821 819 817 815 813 811 810 807 805 803 802 801 800 799 798 797 796 796 795 794 794 794 793 792 791 791 792 792 793
830 831 832 832 831 831 830 828 827 827 826 825 824 823 820 819 817 815 813 811 809 807 804 802 800 799 797 796 796 795 794 793 793 792 791 791 790 789 788 787 786 787 788
830 831 832 832 832 832 830 829 827 827 826 825 824 822 821 818 816 814 812 810 808 807 805 802 800 797 795 794 793 793 792 791 790 790 789 788 787 786 785 784 784 783 783
831 832 833 832 832 832 831 829 828 828 826 826 824 822 821 818 816 814 812 810 808 806 805 802 800 797 795 793 791 790 789 789 788 787 786 785 784 783 782 781 780 779 779
831 832 832 832 832 832 831 830 829 828 826 825 824 822 821 819 816 813 811 810 808 806 804 802 799 796 794 792 790 789 787 786 786 785 784 783 782 780 779 778 777 777 776
830 831 831 832 831 831 831 830 829 828 826 825 824 822 821 819 817 814 812 810 808 806 804 802 799 797 794 792 790 788 786 784 782 782 781 780 780 778 777 776 774 773 772
829 830 830 831 831 831 830 830 829 828 826 825 823 822 820 819 817 814 812 810 808 805 804 802 800 798 796 794 789 787 784 782 781 779 780 780 779 778 777 775 773 771 770
827 829 829 830 831 830 830 829 828 827 826 825 823 822 820 819 817 815 813 811 809 807 805 803 802 799 797 794 790 786 784 784 782 782 782 781 779 778 778 776 774 772 770
826 827 828 829 829 829 828 828 827 827 826 824 823 822 821 819 818 816 814 812 810 808 806 805 803 802 800 798 796 792 789 785 783 784 783 782 780 779 779 776 775 773 771
824 825 826 827 828 828 828 828 827 826 825 824 823 822 821 819 817 816 814 812 811 809 807 806 805 804 801 799 797 796 794 792 787 782 783 783 781 780 779 778 777 775 773
821 823 825 826 827 828 827 827 826 825 824 824 823 822 821 819 818 816 814 812 811 809 807 806 805 805 804 801 799 797 797 796 793 788 782 781 782 780 780 779 778 777 774
820 822 823 824 824 824 824 824 823 823 823 823 823 822 820 818 817 815 813 812 811 808 806 805 804 803 803 803 802 800 797 796 794 793 786 784 784 783 782 781 779 777 775
818 820 821 821 822 822 822 822 821 821 819 819 819 819 818 817 815 813 812 810 808 807 805 804 803 801 800 799 800 800 799 798 796 795 791 787 788 786 784 782 781 779 777
Wind_Speed
8 10 8 7 7 6 5 5 4 4 4 4 4 4 4 5 5 6 5 5 4 3 3 4 5 5 3 3 4 4 3 4 4 3 4 5 5 4 5 3 4 4 4
10 10 10 8 7 6 4 4 4 4 4 4 4 4 4 5 5 6 5 4 4 4 3 3 3 2 2 2 3 4 3 1 2 2 2 4 4 3 2 1 1 2 2
12 10 10 8 7 6 4 3 3 3 3 4 4 4 4 4 5 5 4 2 1 1 2 3 2 3 2 2 4 4 3 2 3 3 2 1 1 1 3 2 2 1 1
15 13 10 7 6 5 4 3 2 2 3 3 4 4 5 5 5 5 5 4 3 3 2 2 4 4 4 4 5 5 5 3 4 5 5 4 4 5 5 4 3 2 2
14 12 10 8 6 5 4 4 3 2 2 3 4 5 5 6 6 6 6 6 6 6 7 6 7 7 7 7 7 7 7 6 5 6 7 7 8 10 10 7 4 4 3
15 12 10 8 7 5 4 3 3 2 3 4 5 5 7 7 8 9 9 9 9 9 9 9 9 9 10 10 10 8 8 8 8 8 9 9 9 9 9 9 7 6 5
16 13 12 9 8 7 5 4 4 4 4 4 5 6 7 8 9 10 10 11 12 12 13 13 13 12 12 12 13 12 10 10 11 10 11 11 10 8 12 12 9 7 7
15 12 10 8 6 4 3 3 3 3 3 5 5 5 6 7 8 10 11 11 12 12 14 15 15 15 15 14 14 14 13 12 13 14 13 13 13 11 11 15 14 10 9
12 9 7 5 3 3 2 3 3 4 4 5 6 6 7 7 8 9 10 10 11 12 13 14 15 17 18 18 17 17 16 16 16 16 16 16 16 16 14 12 16 15 13
10 8 6 4 3 2 3 4 4 4 5 6 7 7 8 9 10 11 12 12 12 12 13 13 15 16 17 18 18 18 17 18 19 19 19 18 18 19 19 17 14 18 16
9 7 6 5 4 4 5 5 5 5 6 7 8 9 10 11 13 14 14 15 16 15 15 15 15 15 16 16 18 19 19 20 22 23 23 22 21 21 21 22 21 19 21
7 6 6 5 5 6 6 7 7 7 8 8 9 10 11 12 13 15 16 16 17 17 16 15 14 15 15 14 15 15 19 21 23 25 26 25 25 24 23 23 25 24 23
6 5 5 5 5 6 6 7 7 8 8 9 9 10 11 12 12 13 14 14 15 15 17 17 17 15 15 14 14 14 15 17 19 20 24 25 24 24 23 23 24 23 25
6 4 4 4 4 5 6 7 7 8 8 9 10 10 11 13 14 14 15 16 16 16 16 15 17 17 17 15 14 14 14 15 15 17 18 20 22 23 24 23 23 22 24
7 4 3 3 4 5 7 7 6 7 7 8 8 9 11 13 15 14 15 15 16 17 16 17 16 17 17 18 16 14 13 12 13 13 15 15 15 17 19 21 23 20 24
6 4 2 2 3 5 7 7 7 7 7 6 7 9 11 13 14 15 15 16 16 17 17 17 17 16 16 16 16 15 13 11 10 12 13 14 13 13 15 17 19 22 26
6 3 1 1 3 4 6 6 6 6 6 7 8 10 12 13 12 13 15 16 17 16 16 16 16 15 15 14 13 12 13 13 11 9 9 10 12 13 14 14 14 14 15
7 5 3 2 2 4 4 5 5 6 6 7 9 11 11 11 12 13 14 15 16 15 15 16 18 19 17 16 17 13 12 11 11 12 13 14 15 15 15 14 14 15 15
9 7 5 3 2 3 3 4 5 5 5 7 9 10 10 12 13 13 14 14 16 15 15 17 17 18 16 19 20 15 13 13 12 11 11 9 8 6 9 6 6 7 9
10 8 6 4 4 3 3 4 4 3 5 6 9 9 11 12 14 13 13 14 16 14 16 19 18 17 12 19 18 16 14 10 8 8 11 13 13 15 14 14 13 11 7
12 10 8 7 5 5 4 4 3 3 4 6 8 9 9 11 14 12 13 12 15 13 13 14 14 15 14 19 13 18 10 9 17 14 14 15 17 17 15 13 14 13 12
14 11 9 7 7 6 5 4 3 5 4 6 7 8 9 10 13 13 13 12 12 13 13 13 14 12 9 14 10 6 3 3 7 8 15 18 21 17 15 15 15 14 14
15 12 10 9 8 7 6 5 5 6 5 6 6 8 7 8 11 11 11 10 9 9 11 12 12 11 10 10 8 6 3 2 8 3 10 14 20 18 14 17 17 17 17
17 12 10 10 9 8 8 7 7 6 6 6 8 8 8 8 9 9 10 9 8 8 8 9 9 10 10 9 9 9 5 4 2 4 6 9 16 16 12 12 15 19 20
15 12 12 12 12 11 10 10 9 9 9 10 10 10 10 9 8 8 9 8 8 8 7 8 7 7 8 8 9 8 6 8 2 2 5 7 9 11 9 9 13 18 22
14 14 14 13 13 13 12 13 13 13 11 12 12 13 11 11 10 9 9 9 8 8 8 7 6 6 3 4 6 6 3 2 3 3 2 6 8 6 7 6 12 19 20
Wind_Direction
137 138 145 140 139 136 125 130 141 112 93 77 64 51 39 33 26 26 36 42 54 71 73 43 53 64 69 43 42 42 62 88 96 85 79 97 90 61 44 82 68 72 82
141 141 147 147 140 136 124 107 104 94 74 61 55 42 37 32 26 23 30 44 61 64 53 34 18 22 14 358 12 20 26 170 144 117 126 115 95 69 57 61 50 60 80
135 141 138 142 134 129 116 99 82 70 56 42 32 23 18 14 12 12 9 10 30 47 20 343 296 336 332 317 316 328 334 306 241 227 210 194 47 346 330 309 292 250 231
125 134 136 132 130 122 117 97 67 29 18 5 358 353 346 346 347 346 345 334 302 286 301 300 281 297 313 316 307 303 303 296 269 255 244 246 272 276 285 287 288 265 237
123 125 124 124 119 117 115 110 93 33 2 341 329 325 319 318 318 314 314 314 306 290 283 283 282 282 289 296 304 298 290 286 273 259 251 254 277 281 246 253 265 273 257
118 116 116 118 114 108 95 70 53 26 353 339 329 327 321 313 310 307 303 302 300 296 293 286 279 279 285 286 284 290 286 280 276 270 257 254 270 268 242 236 257 270 267
122 121 121 118 111 101 86 64 48 31 9 351 336 326 322 322 321 318 315 308 300 294 292 289 286 283 280 281 285 279 284 281 276 271 266 261 262 270 247 236 253 269 277
124 125 122 116 110 96 70 46 29 4 349 344 333 323 322 321 320 322 317 308 301 296 293 289 286 286 284 282 277 278 277 281 280 276 270 264 255 264 256 248 246 259 271
121 124 118 108 99 80 36 17 4 349 331 332 339 335 326 321 319 323 327 321 316 304 295 293 293 289 286 283 282 280 277 279 279 279 276 270 260 260 269 267 251 256 263
120 114 101 90 65 39 359 357 353 342 340 335 334 326 323 315 312 314 314 315 317 310 302 298 295 293 295 288 282 281 280 279 278 278 279 277 272 264 262 263 264 256 257
111 99 80 65 49 31 14 7 354 336 329 324 322 321 317 316 317 315 314 311 307 307 310 304 298 300 291 288 285 281 280 276 279 279 280 280 278 274 269 262 259 259 252
112 88 67 52 41 31 27 19 9 359 352 347 340 337 336 334 331 325 319 313 306 301 298 303 303 300 298 299 293 286 284 283 282 280 281 281 280 276 269 265 262 256 256
126 96 71 52 40 31 27 23 13 13 11 9 8 2 359 354 352 346 344 340 332 319 306 297 295 300 303 307 302 293 286 291 294 292 283 285 287 280 274 272 269 259 257
146 118 80 56 45 34 31 28 27 26 31 29 20 10 8 6 3 0 357 356 353 348 338 324 311 301 298 304 309 310 299 294 298 299 298 293 293 290 286 280 273 265 262
157 135 90 57 42 37 25 30 30 29 18 21 21 16 8 2 0 357 358 357 358 355 351 343 335 323 309 300 303 313 313 301 291 298 304 313 312 310 298 297 283 276 268
167 146 98 40 28 27 20 24 25 24 29 26 20 12 356 353 352 355 357 358 356 357 356 353 350 345 338 326 307 302 307 313 307 293 291 295 300 306 304 305 296 283 272
174 161 115 16 9 5 14 16 17 21 17 7 1 349 343 342 345 348 350 351 353 351 348 349 350 351 352 347 338 324 311 305 302 304 317 314 310 309 309 307 308 312 309
186 188 207 268 328 351 358 9 2 354 347 347 345 341 340 343 345 347 352 353 352 351 348 349 353 353 355 355 349 340 325 314 307 305 305 305 306 308 310 305 299 298 295
200 210 213 238 299 324 329 343 346 354 354 350 359 360 0 356 355 357 0 358 353 353 354 356 0 359 357 347 344 337 330 321 311 309 316 329 355 24 23 13 356 322 307
209 213 223 235 262 290 291 304 314 350 360 5 5 11 8 4 2 1 4 4 355 0 2 359 1 3 1 347 343 330 334 349 28 53 78 78 60 41 39 44 44 41 20
208 215 223 235 254 267 279 294 285 313 333 350 356 353 358 1 0 359 5 4 358 10 3 360 359 358 5 358 358 347 17 56 64 72 57 37 27 27 20 10 13 18 20
212 217 227 242 252 264 274 289 300 319 319 330 333 340 343 345 351 356 359 2 4 5 8 4 3 1 1 8 343 324 341 337 360 29 16 20 20 21 31 11 15 17 10
209 221 236 247 252 264 272 286 291 298 300 306 319 327 327 325 337 345 353 358 359 8 6 1 358 359 355 3 22 30 350 330 335 269 3 17 18 20 35 41 28 24 21
211 225 240 248 257 266 269 276 279 288 297 304 304 306 308 313 317 328 342 345 344 352 357 355 353 357 355 356 355 2 333 304 311 318 313 350 9 19 40 39 28 27 22
211 228 241 241 249 254 259 266 272 276 279 284 286 287 289 293 297 311 325 327 328 342 348 343 344 352 1 351 351 339 331 318 336 303 304 338 351 6 15 38 26 18 11
216 231 236 245 257 259 263 265 265 265 267 267 270 274 276 279 282 293 305 312 317 323 328 332 331 340 342 10 5 358 345 324 349 333 311 328 324 334 340 30 24 21 6